Weather History for Iron Mountain, MI

Change the Weather History Date:

Sunday, February 3, 2013

  Actual Average Record
Temperature  
Mean Temperature 4 °F -  
Max Temperature 12 °F 24 °F 56 °F (1991)
Min Temperature -4 °F 2 °F -25 °F (1985)
Degree Days  
Heating Degree Days 61    
Moisture  
Dew Point -3 °F    
Average Humidity 68    
Maximum Humidity 83    
Minimum Humidity 51    
Precipitation  
Precipitation 0.00 in - - ()
Sea Level Pressure  
Sea Level Pressure 29.91 in    
Wind  
Wind Speed 7 mph (WNW)    
Max Wind Speed 21 mph    
Max Gust Speed 34 mph    
Visibility 8 miles    
Events Snow    
Averages and records for this station are not official NWS values.
T = Trace of Precipitation, MM = Missing Value Source: NWS Daily Summary

Daily Weather History Graph

Daily Weather History Graph

Search for Another Location

Airport:

Trip Planner

Search our weather history database for the weather conditions in past years. The results will help you decide how hot, cold, wet, or windy it might be!

Date:

Astronomy

Feb. 03, 2013 Rise Set
Actual Time 7:11 AM CST 5:01 PM CST
Civil Twilight 6:39 AM CST 5:33 PM CST
Nautical Twilight 6:04 AM CST 6:08 PM CST
Astronomical Twilight 5:29 AM CST 6:43 PM CST
Moon 12:39 AM CST (2/3) 10:36 AM CST (2/3)
Length of Visible Light 10h 53m
Length of Day
9h 50m
Waning Gibbous, 48% of the Moon is Illuminated
Feb 3
Waning Gibbous
Feb 10
New
Feb 17
First Quarter
Feb 25
Full
Mar 4
Last Quarter

Hourly Weather History & Observations

Time (CST) Temp. Windchill Dew Point Humidity Pressure Visibility Wind Dir Wind Speed Gust Speed Precip Events Conditions
12:54 AM -0.9 °F - -7.1 °F 75% 29.96 in 10.0 mi Calm Calm - N/A   Mostly Cloudy
1:54 AM -2.0 °F - -6.0 °F 83% 29.94 in 10.0 mi Calm Calm - N/A   Overcast
2:54 AM 1.9 °F - -2.9 °F 80% 29.90 in 6.0 mi Calm Calm - 0.00 in   Haze
3:54 AM 3.9 °F - -0.9 °F 80% 29.87 in 4.0 mi Calm Calm - 0.00 in Snow Light Snow
4:54 AM 5.0 °F -4.1 °F -0.9 °F 76% 29.87 in 6.0 mi WNW 4.6 mph - 0.00 in Snow Light Snow
5:54 AM 5.0 °F -8.1 °F -0.9 °F 76% 29.88 in 9.0 mi WNW 8.1 mph - 0.00 in   Overcast
6:54 AM 6.1 °F -2.8 °F -0.0 °F 76% 29.88 in 9.0 mi West 4.6 mph - 0.00 in   Overcast
7:54 AM 6.1 °F -6.8 °F -0.0 °F 76% 29.89 in 7.0 mi WNW 8.1 mph - N/A   Overcast
8:54 AM 7.0 °F -7.5 °F -0.9 °F 70% 29.88 in 10.0 mi WNW 10.4 mph - N/A   Mostly Cloudy
9:11 AM 8.6 °F -7.7 °F -0.4 °F 67% 29.79 in 4.0 mi WNW 13.8 mph - N/A   Haze
9:20 AM 8.6 °F -7.7 °F -0.4 °F 67% 29.79 in 2.5 mi WNW 13.8 mph 19.6 mph N/A   Haze
9:27 AM 8.6 °F -7.0 °F 1.4 °F 73% 29.79 in 7.0 mi WNW 12.7 mph - N/A   Mostly Cloudy
9:43 AM 10.4 °F -6.0 °F 1.4 °F 67% 29.79 in 7.0 mi WNW 15.0 mph 24.2 mph N/A   Scattered Clouds
9:54 AM 10.0 °F -7.6 °F 1.0 °F 67% 29.89 in 6.0 mi WNW 17.3 mph - N/A   Haze
10:47 AM 10.4 °F -8.6 °F -0.4 °F 62% 29.80 in 2.0 mi NW 20.7 mph 34.5 mph N/A Snow Blowing Snow
10:54 AM 10.9 °F -6.5 °F 1.0 °F 64% 29.90 in 5.0 mi WNW 17.3 mph 27.6 mph N/A Snow Blowing Snow
11:54 AM 12.9 °F -4.4 °F -0.9 °F 54% 29.90 in 10.0 mi WNW 18.4 mph 24.2 mph 0.00 in   Overcast
12:54 PM 12.0 °F -6.5 °F -2.9 °F 51% 29.91 in 9.0 mi WNW 20.7 mph 26.5 mph 0.00 in   Overcast
1:54 PM 12.9 °F -4.4 °F -2.0 °F 51% 29.91 in 10.0 mi NNW 18.4 mph 23.0 mph N/A   Overcast
2:54 PM 10.9 °F -4.7 °F -2.0 °F 56% 29.93 in 10.0 mi NNW 13.8 mph - N/A   Mostly Cloudy
3:54 PM 10.0 °F -6.5 °F -2.9 °F 56% 29.95 in 10.0 mi NW 15.0 mph - N/A   Scattered Clouds
4:54 PM 9.0 °F -6.6 °F -2.0 °F 61% 29.96 in 10.0 mi NW 12.7 mph - N/A   Scattered Clouds
5:54 PM 6.1 °F -7.8 °F -5.1 °F 60% 29.99 in 10.0 mi NW 9.2 mph - N/A   Partly Cloudy
6:54 PM 3.0 °F -4.4 °F -6.0 °F 66% 30.00 in 10.0 mi NW 3.5 mph - N/A   Clear
7:54 PM 1.0 °F - -7.1 °F 69% 30.00 in 10.0 mi Calm Calm - N/A   Clear
8:54 PM -2.0 °F - -8.0 °F 76% 30.00 in 10.0 mi Calm Calm - N/A   Clear
9:54 PM -0.0 °F - -8.0 °F 69% 30.00 in 10.0 mi Calm Calm - N/A   Clear
10:54 PM -4.0 °F -12.4 °F -9.0 °F 79% 30.00 in 10.0 mi NNW 3.5 mph - N/A   Clear
11:54 PM -0.0 °F -9.9 °F -7.1 °F 72% 30.01 in 10.0 mi WNW 4.6 mph - N/A   Clear